一网星座-0699 (ONEWEB-0699)

导读

ONEWEB-0699是英国OneWeb公司的低轨互联网卫星,于2024年10月20日由SpaceX猎鹰9号火箭发射升空,属于OneWeb星座最后一批组网卫星。 该卫星运行于低地球轨道,配备Ku波段透明转发器,采用地球移动波束设计,是OneWeb全球卫星互联网星座的组成部分,助力实现全球网络覆盖,后续还参与了5G-Advanced非地面网络技术验证,推动星地一体化通信发展。

Basic Information
目录编号:
61605
目录名称:
ONEWEB-0699
国际标识:
2024-188M
轨道中心:
EARTH
卫星名称:
一网星座-0699
卫星全名:
一网星座-0699 (ONEWEB-0699)
卫星状态:
在轨 (已飞行646 天)
发射日期:
2024-10-20 UTC
国别 :
英国 (GB)
星等 :
--
Orbit Information
数据来源 国际轨道数据 AOE轨道数据
星历时间 2026-07-27T18:56:07+0800
13小时前
查看轨道信息
2026-07-25T17:00:00+0800
2天前
查看轨道信息
半长轴 7599.852km 7599.828km
偏心率 0.0002465 0.0002385
轨道倾角 87.882° 87.883°
近地点辐角 90.424° 90.781°
升交点赤经 28.240° 28.655°
平近点角 269.717° 179.815°
近地点 1219.841km 1219.878km
远地点 1223.589km 1223.504km
周期 109.892分钟 109.892分钟
每日圈数 13.103735 13.103798
Detailed Information
卫星平台:
0699
平衡模式:
三轴稳定
覆盖范围:
全球
运营商:
一网卫星公司
运营商所在国:
英国
制造商(研发单位):
空客防务与航天公司
制造商所在国:
法国大都会
使用方式:
暂无
Satellite Introduction
OneWeb 计划是一项全球卫星互联网项目,旨在通过发射低轨道卫星,为全球偏远和无法接入互联网的地区提供高速网络连接。OneWeb 的目标是打造一个由数百颗卫星组成的网络,帮助缩小全球数字鸿沟,推动教育、医疗和经济发展。
2D Orbit Map
3D Orbit Map
Orbit Altitude Analysis Chart
Orbit Inclination Analysis Chart
Orbit Comprehensive Analysis Chart
View Comprehensive Chart